Project,Study,Ord_Occ,Event_Num,Cast_ID,Date_Time_UTC,Date_Time_PST,Lat_Dec,Lon_Dec,Sta_ID,Line,Sta,Depth,Pressure,PrQ,Temp1,Temp1Q,Temp2,Temp2Q,TempAve,Salt1,Salt1Q,Salt1_Corr,Salt2,Salt2Q,Salt2_Corr,SaltAve_Corr,Ox1,Ox1Q,Ox1_CruiseCorr,Ox1_StaCorr,Ox2,Ox2Q,Ox2_CruiseCorr,Ox2_StaCorr,OxAve_StaCorr,Ox1uM,Ox1uM_CruiseCorr,Ox1uM_StaCorr,Ox2uM,Ox2uM_CruiseCorr,Ox2uM_StaCorr,OxAveuM_StaCorr,FluorV,FluorQ,EstChl_CruiseCorr,EstChl_StaCorr,ISUSV,ISUSQ,EstNO3_CruiseCorr,EstNO3_StaCorr,SigThetaTS1,SigThetaTS1Q,SigThetaTS2,SigThetaTS2Q,BAT,XMiss,TransQ,pH,pHQ,SPAR,SPARQ,PAR,PARQ,PoT1,PoT2,DynHt,SVA,OxSat1,OxSat2,BTL_Depth,BTL_Temp,SaltB,OxB,OxBuM,Chl-a,Phaeo,NO3,NO2,NH4,PO4,SIL
CalCOFI,2007SR,037,39,2007_037u,19-Jul-2020 22:32:37,19-Jul-2020 14:32:37,33.65678,-118.97522,086.7 040.0,086.7,040.0,740.000,746.638,,5.3335,,5.3339,,5.3337,34.3851,,34.3853,34.3863,,34.3879,34.3866,0.1182,,0.1058,0.1054,1.8202,,0.4042,0.1951,0.1503,5.137,4.8744,10.9349,79.140,,14.3113,12.6231,0.0342,,,,-99.0,,-99.0,-99.0,27.1561,,27.1570,,0.6509,84.9825,,7.511,,1.5564E+03,,7.9113E-02,,5.2709,5.2713,1.1272,,1.677,25.831,740,5.334,34.3869,,5.35,,,35.17,0.00,0.00,3.35,103.01
CalCOFI,2007SR,037,39,2007_037u,19-Jul-2020 22:33:15,19-Jul-2020 14:33:15,33.65678,-118.97522,086.7 040.0,086.7,040.0,739.000,745.628,,5.3298,,5.3290,,5.3294,34.3853,,34.3855,34.3866,,34.3882,34.3869,0.1153,,0.1028,0.1024,1.8254,,0.4166,0.2101,0.1563,5.013,4.7450,10.8329,79.369,,14.8381,12.8355,0.0344,,,,-99.0,,-99.0,-99.0,27.1567,,27.1578,,0.6550,84.8967,,7.511,,1.4787E+03,,7.8405E-02,,5.2673,5.2665,1.1281,,1.636,25.903,,,,,,,,,,,,
CalCOFI,2007SR,037,39,2007_037u,19-Jul-2020 22:33:21,19-Jul-2020 14:33:21,33.65678,-118.97522,086.7 040.0,086.7,040.0,738.000,744.617,,5.3276,,5.3277,,5.3277,34.3854,,34.3856,34.3867,,34.3883,34.3870,0.1150,,0.1025,0.1021,1.8238,,0.4128,0.2055,0.1538,4.999,4.7304,10.8214,79.297,,14.6725,12.7470,0.0342,,,,-99.0,,-99.0,-99.0,27.1570,,27.1580,,0.6453,85.1013,,7.511,,1.5037E+03,,7.3050E-02,,5.2653,5.2653,1.1281,,1.631,25.879,,,,,,,,,,,,
CalCOFI,2007SR,037,39,2007_037u,19-Jul-2020 22:33:24,19-Jul-2020 14:33:24,33.65680,-118.97520,086.7 040.0,086.7,040.0,737.000,743.606,,5.3271,,5.3271,,5.3271,34.3854,,34.3856,34.3867,,34.3883,34.3870,0.1170,,0.1046,0.1042,1.8235,,0.4120,0.2046,0.1544,5.086,4.8212,10.8930,79.282,,14.6380,12.7655,0.0342,,,,-99.0,,-99.0,-99.0,27.1571,,27.1581,,0.6423,85.1657,,7.511,,1.5184E+03,,7.3875E-02,,5.2648,5.2648,1.1281,,1.660,25.874,,,,,,,,,,,,
CalCOFI,2007SR,037,39,2007_037u,19-Jul-2020 22:33:26,19-Jul-2020 14:33:26,33.65680,-118.97520,086.7 040.0,086.7,040.0,736.000,742.595,,5.3288,,5.3300,,5.3294,34.3853,,34.3855,34.3866,,34.3882,34.3869,0.1163,,0.1038,0.1035,1.8248,,0.4151,0.2084,0.1560,5.056,4.7899,10.8683,79.342,,14.7760,12.8222,0.0342,,,,-99.0,,-99.0,-99.0,27.1568,,27.1576,,0.6508,84.9854,,7.511,,1.5246E+03,,7.4792E-02,,5.2666,5.2678,1.1281,,1.650,25.895,,,,,,,,,,,,
CalCOFI,2007SR,037,39,2007_037u,19-Jul-2020 22:34:08,19-Jul-2020 14:34:08,33.65683,-118.97521,086.7 040.0,086.7,040.0,735.000,741.585,,5.3285,,5.3287,,5.3286,34.3855,,34.3857,34.3866,,34.3882,34.3870,0.1164,,0.1039,0.1036,1.8301,,0.4278,0.2236,0.1636,5.059,4.7930,10.8708,79.572,,15.3051,13.0880,0.0346,,,,-99.0,,-99.0,-99.0,27.1569,,27.1578,,0.6579,84.8351,,7.514,,1.6059E+03,,6.8155E-02,,5.2664,5.2666,1.1292,,1.651,25.970,735,5.329,34.3865,0.087,3.81,,,35.32,0.040,0.00,3.34,102.53
CalCOFI,2007SR,037,39,2007_037u,19-Jul-2020 22:34:27,19-Jul-2020 14:34:27,33.65684,-118.97518,086.7 040.0,086.7,040.0,734.000,740.574,,5.3346,,5.3355,,5.3351,34.3851,,34.3853,34.3863,,34.3879,34.3866,0.1203,,0.1080,0.1076,1.8285,,0.4240,0.2190,0.1633,5.230,4.9715,11.0114,79.501,,15.1417,13.0766,0.0342,,,,-99.0,,-99.0,-99.0,27.1559,,27.1567,,0.6415,85.1814,,7.515,,1.6965E+03,,7.0746E-02,,5.2725,5.2734,1.1296,,1.707,25.950,,,,,,,,,,,,
CalCOFI,2007SR,037,39,2007_037u,19-Jul-2020 22:34:28,19-Jul-2020 14:34:28,33.65684,-118.97518,086.7 040.0,086.7,040.0,733.000,739.563,,5.3403,,5.3404,,5.3404,34.3844,,34.3846,34.3856,,34.3872,34.3859,0.1193,,0.1070,0.1066,1.8321,,0.4326,0.2294,0.1680,5.186,4.9256,10.9752,79.659,,15.5052,13.2402,0.0339,,,,-99.0,,-99.0,-99.0,27.1547,,27.1556,,0.6432,85.1456,,7.515,,1.7018E+03,,6.8012E-02,,5.2783,5.2784,1.1296,,1.693,26.005,,,,,,,,,,,,
CalCOFI,2007SR,037,39,2007_037u,19-Jul-2020 22:34:29,19-Jul-2020 14:34:29,33.65684,-118.97518,086.7 040.0,086.7,040.0,732.000,738.552,,5.3423,,5.3425,,5.3424,34.3843,,34.3845,34.3851,,34.3867,34.3856,0.1191,,0.1067,0.1064,1.8297,,0.4268,0.2225,0.1645,5.177,4.9162,10.9678,79.555,,15.2660,13.1169,0.0342,,,,-99.0,,-99.0,-99.0,27.1543,,27.1550,,0.6433,85.1436,,7.515,,1.7164E+03,,6.9410E-02,,5.2804,5.2806,1.1296,,1.690,25.972,,,,,,,,,,,,
CalCOFI,2007SR,037,39,2007_037u,19-Jul-2020 22:34:30,19-Jul-2020 14:34:30,33.65684,-118.97518,086.7 040.0,086.7,040.0,731.000,737.542,,5.3428,,5.3432,,5.3430,34.3843,,34.3845,34.3853,,34.3869,34.3857,0.1190,,0.1066,0.1063,1.8301,,0.4278,0.2236,0.1650,5.176,4.9151,10.9670,79.574,,15.3097,13.1384,0.0348,,,,-99.0,,-99.0,-99.0,27.1543,,27.1550,,0.6436,85.1370,,7.515,,1.7259E+03,,6.7204E-02,,5.2809,5.2814,1.1296,,1.690,25.979,,,,,,,,,,,,
CalCOFI,2007SR,037,39,2007_037u,19-Jul-2020 22:34:31,19-Jul-2020 14:34:31,33.65684,-118.97516,086.7 040.0,086.7,040.0,730.000,736.531,,5.3443,,5.3446,,5.3445,34.3842,,34.3844,34.3851,,34.3867,34.3856,0.1200,,0.1077,0.1073,1.8324,,0.4333,0.2303,0.1688,5.216,4.9569,10.9999,79.672,,15.5351,13.2675,0.0348,,,,-99.0,,-99.0,-99.0,27.1540,,27.1547,,0.6446,85.1157,,7.515,,1.7466E+03,,6.5239E-02,,5.2825,5.2828,1.1296,,1.703,26.011,,,,,,,,,,,,
CalCOFI,2007SR,037,39,2007_037u,19-Jul-2020 22:34:32,19-Jul-2020 14:34:32,33.65684,-118.97516,086.7 040.0,086.7,040.0,729.000,735.520,,5.3452,,5.3455,,5.3454,34.3841,,34.3843,34.3850,,34.3866,34.3855,0.1239,,0.1118,0.1114,1.8315,,0.4311,0.2277,0.1696,5.388,5.1364,11.1413,79.631,,15.4408,13.2911,0.0342,,,,-99.0,,-99.0,-99.0,27.1538,,27.1545,,0.6447,85.1135,,7.515,,1.7917E+03,,7.1534E-02,,5.2835,5.2839,1.1296,,1.759,25.999,,,,,,,,,,,,
CalCOFI,2007SR,037,39,2007_037u,19-Jul-2020 22:34:33,19-Jul-2020 14:34:33,33.65684,-118.97516,086.7 040.0,086.7,040.0,728.000,734.509,,5.3471,,5.3475,,5.3473,34.3840,,34.3842,34.3850,,34.3866,34.3854,0.1237,,0.1116,0.1112,1.8289,,0.4249,0.2202,0.1657,5.380,5.1281,11.1348,79.520,,15.1854,13.1601,0.0345,,,,-99.0,,-99.0,-99.0,27.1535,,27.1542,,0.6461,85.0835,,7.515,,1.8846E+03,,6.3411E-02,,5.2855,5.2859,1.1296,,1.757,25.964,,,,,,,,,,,,
CalCOFI,2007SR,037,39,2007_037u,19-Jul-2020 22:34:34,19-Jul-2020 14:34:34,33.65684,-118.97516,086.7 040.0,086.7,040.0,727.000,733.499,,5.3531,,5.3538,,5.3535,34.3836,,34.3838,34.3848,,34.3864,34.3851,0.1259,,0.1139,0.1135,1.8251,,0.4159,0.2092,0.1614,5.472,5.2241,11.2104,79.352,,14.7990,13.0047,0.0342,,,,-99.0,,-99.0,-99.0,27.1525,,27.1533,,0.6463,85.0816,,7.515,,2.1512E+03,,6.6084E-02,,5.2916,5.2923,1.1296,,1.787,25.913,,,,,,,,,,,,
CalCOFI,2007SR,037,39,2007_037u,19-Jul-2020 22:34:36,19-Jul-2020 14:34:36,33.65685,-118.97516,086.7 040.0,086.7,040.0,726.000,732.488,,5.3599,,5.3608,,5.3604,34.3831,,34.3833,34.3842,,34.3858,34.3846,0.1299,,0.1180,0.1177,1.8243,,0.4140,0.2069,0.1623,5.646,5.4058,11.3535,79.319,,14.7231,13.0383,0.0342,,,,-99.0,,-99.0,-99.0,27.1513,,27.1520,,0.6468,85.0706,,7.515,,2.5323E+03,,6.7442E-02,,5.2984,5.2993,1.1296,,1.844,25.906,,,,,,,,,,,,
CalCOFI,2007SR,037,39,2007_037u,19-Jul-2020 22:34:37,19-Jul-2020 14:34:37,33.65686,-118.97516,086.7 040.0,086.7,040.0,725.000,731.477,,5.3682,,5.3688,,5.3685,34.3826,,34.3828,34.3836,,34.3852,34.3840,0.1288,,0.1169,0.1165,1.8303,,0.4283,0.2242,0.1704,5.598,5.3557,11.3141,79.579,,15.3212,13.3177,0.0342,,,,-99.0,,-99.0,-99.0,27.1498,,27.1506,,0.6472,85.0630,,7.515,,2.6880E+03,,6.2129E-02,,5.3068,5.3074,1.1296,,1.829,25.996,,,,,,,,,,,,
CalCOFI,2007SR,037,39,2007_037u,19-Jul-2020 22:34:38,19-Jul-2020 14:34:38,33.65686,-118.97516,086.7 040.0,086.7,040.0,724.000,730.466,,5.3765,,5.3774,,5.3770,34.3820,,34.3822,34.3831,,34.3847,34.3835,0.1292,,0.1173,0.1170,1.8260,,0.4180,0.2118,0.1644,5.618,5.3765,11.3305,79.394,,14.8956,13.1131,0.0342,,,,-99.0,,-99.0,-99.0,27.1484,,27.1492,,0.6475,85.0565,,7.515,,2.5028E+03,,6.3304E-02,,5.3151,5.3160,1.1296,,1.835,25.940,,,,,,,,,,,,
CalCOFI,2007SR,037,39,2007_037u,19-Jul-2020 22:34:39,19-Jul-2020 14:34:39,33.65686,-118.97515,086.7 040.0,086.7,040.0,723.000,729.456,,5.3885,,5.3880,,5.3883,34.3809,,34.3811,34.3820,,34.3836,34.3824,0.1366,,0.1250,0.1247,1.8219,,0.4082,0.2000,0.1624,5.938,5.7106,11.5937,79.218,,14.4907,13.0422,0.0334,,,,-99.0,,-99.0,-99.0,27.1461,,27.1470,,0.6501,85.0005,,7.515,,2.4070E+03,,6.2759E-02,,5.3272,5.3266,1.1296,,1.941,25.889,,,,,,,,,,,,
CalCOFI,2007SR,037,39,2007_037u,19-Jul-2020 22:34:40,19-Jul-2020 14:34:40,33.65686,-118.97514,086.7 040.0,086.7,040.0,722.000,728.445,,5.3927,,5.3934,,5.3931,34.3806,,34.3808,34.3816,,34.3832,34.3820,0.1330,,0.1213,0.1209,1.8242,,0.4137,0.2066,0.1638,5.783,5.5488,11.4662,79.315,,14.7139,13.0901,0.0338,,,,-99.0,,-99.0,-99.0,27.1454,,27.1461,,0.6488,85.0270,,7.515,,2.3804E+03,,6.5283E-02,,5.3314,5.3321,1.1296,,1.890,25.924,,,,,,,,,,,,
CalCOFI,2007SR,037,39,2007_037u,19-Jul-2020 22:34:41,19-Jul-2020 14:34:41,33.65686,-118.97514,086.7 040.0,086.7,040.0,721.000,727.434,,5.4022,,5.4025,,5.4024,34.3799,,34.3801,34.3811,,34.3827,34.3814,0.1356,,0.1240,0.1237,1.8207,,0.4054,0.1965,0.1601,5.896,5.6667,11.5591,79.161,,14.3596,12.9594,0.0344,,,,-99.0,,-99.0,-99.0,27.1437,,27.1446,,0.6489,85.0261,,7.515,,2.1356E+03,,6.0282E-02,,5.3409,5.3412,1.1296,,1.927,25.879,,,,,,,,,,,,
CalCOFI,2007SR,037,39,2007_037u,19-Jul-2020 22:34:42,19-Jul-2020 14:34:42,33.65686,-118.97514,086.7 040.0,086.7,040.0,720.000,726.424,,5.4089,,5.4089,,5.4089,34.3792,,34.3794,34.3805,,34.3821,34.3808,0.1398,,0.1284,0.1281,1.8196,,0.4027,0.1934,0.1608,6.078,5.8567,11.7088,79.116,,14.2561,12.9825,0.0342,,,,-99.0,,-99.0,-99.0,27.1423,,27.1433,,0.6497,85.0074,,7.515,,1.9473E+03,,6.3969E-02,,5.3477,5.3477,1.1296,,1.987,25.868,,,,,,,,,,,,
CalCOFI,2007SR,037,39,2007_037u,19-Jul-2020 22:34:43,19-Jul-2020 14:34:43,33.65686,-118.97514,086.7 040.0,086.7,040.0,719.000,725.413,,5.4118,,5.4121,,5.4120,34.3790,,34.3792,34.3800,,34.3816,34.3804,0.1341,,0.1224,0.1221,1.8298,,0.4271,0.2228,0.1725,5.829,5.5968,11.5040,79.558,,15.2729,13.3885,0.0344,,,,-99.0,,-99.0,-99.0,27.1418,,27.1425,,0.6505,84.9919,,7.515,,1.9176E+03,,6.1544E-02,,5.3507,5.3510,1.1296,,1.906,26.015,,,,,,,,,,,,
CalCOFI,2007SR,037,39,2007_037u,19-Jul-2020 22:34:44,19-Jul-2020 14:34:44,33.65686,-118.97514,086.7 040.0,086.7,040.0,718.000,724.402,,5.4131,,5.4132,,5.4132,34.3788,,34.3790,34.3799,,34.3815,34.3803,0.1340,,0.1223,0.1220,1.8225,,0.4097,0.2017,0.1619,5.825,5.5926,11.5007,79.241,,14.5436,13.0222,0.0341,,,,-99.0,,-99.0,-99.0,27.1415,,27.1423,,0.6496,85.0112,,7.515,,1.9320E+03,,6.5040E-02,,5.3520,5.3522,1.1296,,1.905,25.911,,,,,,,,,,,,
CalCOFI,2007SR,037,39,2007_037u,19-Jul-2020 22:34:45,19-Jul-2020 14:34:45,33.65686,-118.97514,086.7 040.0,086.7,040.0,717.000,723.392,,5.4130,,5.4133,,5.4132,34.3787,,34.3789,34.3798,,34.3814,34.3802,0.1368,,0.1252,0.1249,1.8253,,0.4163,0.2098,0.1674,5.947,5.7200,11.6011,79.365,,14.8289,13.2150,0.0345,,,,-99.0,,-99.0,-99.0,27.1414,,27.1422,,0.6499,85.0037,,7.515,,2.0114E+03,,5.7054E-02,,5.3521,5.3523,1.1296,,1.945,25.952,,,,,,,,,,,,
CalCOFI,2007SR,037,39,2007_037u,19-Jul-2020 22:34:46,19-Jul-2020 14:34:46,33.65686,-118.97514,086.7 040.0,086.7,040.0,716.000,722.381,,5.4134,,5.4140,,5.4137,34.3789,,34.3791,34.3797,,34.3813,34.3802,0.1368,,0.1252,0.1249,1.8171,,0.3968,0.1861,0.1555,5.946,5.7189,11.6003,79.008,,14.0076,12.8040,0.0342,,,,-99.0,,-99.0,-99.0,27.1415,,27.1421,,0.6497,85.0074,,7.515,,2.0246E+03,,5.6692E-02,,5.3526,5.3531,1.1296,,1.944,25.836,,,,,,,,,,,,
CalCOFI,2007SR,037,39,2007_037u,19-Jul-2020 22:34:47,19-Jul-2020 14:34:47,33.65686,-118.97514,086.7 040.0,086.7,040.0,715.000,721.370,,5.4181,,5.4185,,5.4183,34.3783,,34.3785,34.3793,,34.3809,34.3797,0.1427,,0.1314,0.1311,1.8200,,0.4037,0.1945,0.1628,6.206,5.9903,11.8141,79.133,,14.2952,13.0547,0.0342,,,,-99.0,,-99.0,-99.0,27.1405,,27.1412,,0.6499,85.0033,,7.515,,1.8881E+03,,5.2618E-02,,5.3573,5.3577,1.1296,,2.029,25.879,,,,,,,,,,,,
CalCOFI,2007SR,037,39,2007_037u,19-Jul-2020 22:34:48,19-Jul-2020 14:34:48,33.65686,-118.97514,086.7 040.0,086.7,040.0,714.000,720.360,,5.4194,,5.4199,,5.4197,34.3782,,34.3784,34.3793,,34.3809,34.3797,0.1385,,0.1270,0.1267,1.8304,,0.4285,0.2245,0.1756,6.022,5.7983,11.6628,79.585,,15.3350,13.4989,0.0332,,,,-99.0,,-99.0,-99.0,27.1402,,27.1410,,0.6505,84.9906,,7.515,,1.8242E+03,,6.1984E-02,,5.3587,5.3592,1.1296,,1.969,26.028,,,,,,,,,,,,
CalCOFI,2007SR,037,39,2007_037u,19-Jul-2020 22:34:49,19-Jul-2020 14:34:49,33.65686,-118.97514,086.7 040.0,086.7,040.0,713.000,719.349,,5.4240,,5.4248,,5.4244,34.3779,,34.3781,34.3789,,34.3805,34.3793,0.1376,,0.1261,0.1258,1.8231,,0.4111,0.2034,0.1646,5.983,5.7576,11.6307,79.267,,14.6034,13.1171,0.0340,,,,-99.0,,-99.0,-99.0,27.1394,,27.1401,,0.6504,84.9924,,7.515,,1.7980E+03,,6.3109E-02,,5.3634,5.3641,1.1296,,1.957,25.927,,,,,,,,,,,,
CalCOFI,2007SR,037,39,2007_037u,19-Jul-2020 22:34:50,19-Jul-2020 14:34:50,33.65686,-118.97514,086.7 040.0,086.7,040.0,712.000,718.339,,5.4291,,5.4294,,5.4293,34.3774,,34.3776,34.3784,,34.3800,34.3788,0.1410,,0.1296,0.1293,1.8225,,0.4097,0.2017,0.1655,6.130,5.9110,11.7516,79.244,,14.5505,13.1511,0.0340,,,,-99.0,,-99.0,-99.0,27.1384,,27.1391,,0.6507,84.9878,,7.515,,1.7437E+03,,5.6657E-02,,5.3685,5.3688,1.1296,,2.005,25.922,,,,,,,,,,,,
CalCOFI,2007SR,037,39,2007_037u,19-Jul-2020 22:34:51,19-Jul-2020 14:34:51,33.65686,-118.97514,086.7 040.0,086.7,040.0,711.000,717.328,,5.4311,,5.4313,,5.4312,34.3773,,34.3775,34.3783,,34.3799,34.3787,0.1441,,0.1329,0.1326,1.8222,,0.4089,0.2009,0.1668,6.265,6.0519,11.8626,79.229,,14.5160,13.1893,0.0342,,,,-99.0,,-99.0,-99.0,27.1381,,27.1389,,0.6504,84.9928,,7.515,,1.7218E+03,,5.9757E-02,,5.3706,5.3708,1.1296,,2.049,25.918,,,,,,,,,,,,
CalCOFI,2007SR,037,39,2007_037u,19-Jul-2020 22:34:52,19-Jul-2020 14:34:52,33.65686,-118.97514,086.7 040.0,086.7,040.0,710.000,716.317,,5.4331,,5.4333,,5.4332,34.3771,,34.3773,34.3781,,34.3797,34.3785,0.1428,,0.1315,0.1312,1.8219,,0.4082,0.2000,0.1656,6.208,5.9924,11.8157,79.215,,14.4838,13.1498,0.0342,,,,-99.0,,-99.0,-99.0,27.1376,,27.1384,,0.6510,84.9814,,7.515,,1.7224E+03,,5.8883E-02,,5.3727,5.3729,1.1296,,2.031,25.915,,,,,,,,,,,,
CalCOFI,2007SR,037,39,2007_037u,19-Jul-2020 22:34:53,19-Jul-2020 14:34:53,33.65686,-118.97514,086.7 040.0,086.7,040.0,709.000,715.307,,5.4336,,5.4341,,5.4339,34.3770,,34.3772,34.3780,,34.3796,34.3784,0.1422,,0.1309,0.1306,1.8222,,0.4089,0.2009,0.1658,6.184,5.9674,11.7960,79.230,,14.5183,13.1572,0.0339,,,,-99.0,,-99.0,-99.0,27.1375,,27.1382,,0.6591,84.8084,,7.516,,1.7549E+03,,5.6643E-02,,5.3733,5.3738,1.1296,,2.023,25.920,,,,,,,,,,,,
CalCOFI,2007SR,037,39,2007_037u,19-Jul-2020 22:34:54,19-Jul-2020 14:34:54,33.65686,-118.97514,086.7 040.0,086.7,040.0,708.000,714.296,,5.4358,,5.4361,,5.4360,34.3769,,34.3771,34.3779,,34.3795,34.3783,0.1412,,0.1298,0.1295,1.8223,,0.4092,0.2011,0.1653,6.140,5.9214,11.7598,79.234,,14.5275,13.1437,0.0344,,,,-99.0,,-99.0,-99.0,27.1371,,27.1379,,0.6528,84.9427,,7.516,,1.7661E+03,,5.6144E-02,,5.3756,5.3758,1.1296,,2.009,25.923,,,,,,,,,,,,
CalCOFI,2007SR,037,39,2007_037u,19-Jul-2020 22:34:55,19-Jul-2020 14:34:55,33.65686,-118.97514,086.7 040.0,086.7,040.0,707.000,713.285,,5.4382,,5.4384,,5.4383,34.3765,,34.3767,34.3776,,34.3792,34.3780,0.1441,,0.1329,0.1326,1.8214,,0.4070,0.1985,0.1656,6.268,6.0551,11.8651,79.192,,14.4309,13.1480,0.0342,,,,-99.0,,-99.0,-99.0,27.1366,,27.1374,,0.6520,84.9582,,7.516,,1.7337E+03,,5.7126E-02,,5.3780,5.3782,1.1296,,2.051,25.911,,,,,,,,,,,,
CalCOFI,2007SR,037,39,2007_037u,19-Jul-2020 22:34:56,19-Jul-2020 14:34:56,33.65686,-118.97514,086.7 040.0,086.7,040.0,706.000,712.275,,5.4404,,5.4410,,5.4407,34.3765,,34.3767,34.3774,,34.3790,34.3779,0.1456,,0.1344,0.1341,1.8210,,0.4061,0.1974,0.1658,6.331,6.1208,11.9169,79.176,,14.3941,13.1555,0.0342,,,,-99.0,,-99.0,-99.0,27.1363,,27.1370,,0.6529,84.9389,,7.516,,1.7213E+03,,5.7135E-02,,5.3803,5.3809,1.1296,,2.072,25.907,,,,,,,,,,,,
CalCOFI,2007SR,037,39,2007_037u,19-Jul-2020 22:34:57,19-Jul-2020 14:34:57,33.65686,-118.97514,086.7 040.0,086.7,040.0,705.000,711.264,,5.4420,,5.4422,,5.4421,34.3762,,34.3764,34.3772,,34.3788,34.3776,0.1500,,0.1390,0.1387,1.8207,,0.4054,0.1965,0.1676,6.522,6.3202,12.0740,79.164,,14.3665,13.2203,0.0342,,,,-99.0,,-99.0,-99.0,27.1358,,27.1366,,0.6531,84.9358,,7.516,,1.7123E+03,,5.5074E-02,,5.3820,5.3821,1.1296,,2.134,25.903,,,,,,,,,,,,
CalCOFI,2007SR,037,39,2007_037u,19-Jul-2020 22:34:58,19-Jul-2020 14:34:58,33.65686,-118.97514,086.7 040.0,086.7,040.0,704.000,710.253,,5.4458,,5.4465,,5.4462,34.3761,,34.3763,34.3771,,34.3787,34.3775,0.1455,,0.1343,0.1340,1.8219,,0.4082,0.2000,0.1670,6.327,6.1167,11.9136,79.218,,14.4907,13.2022,0.0339,,,,-99.0,,-99.0,-99.0,27.1353,,27.1360,,0.6524,84.9504,,7.517,,1.7166E+03,,5.1559E-02,,5.3858,5.3865,1.1296,,2.070,25.924,,,,,,,,,,,,
CalCOFI,2007SR,037,39,2007_037u,19-Jul-2020 22:34:59,19-Jul-2020 14:34:59,33.65686,-118.97514,086.7 040.0,086.7,040.0,703.000,709.243,,5.4547,,5.4563,,5.4555,34.3754,,34.3756,34.3765,,34.3781,34.3769,0.1451,,0.1339,0.1336,1.8219,,0.4082,0.2000,0.1668,6.309,6.0979,11.8988,79.218,,14.4907,13.1948,0.0338,,,,-99.0,,-99.0,-99.0,27.1337,,27.1344,,0.6530,84.9386,,7.517,,1.6944E+03,,5.0777E-02,,5.3948,5.3964,1.1296,,2.065,25.929,,,,,,,,,,,,
CalCOFI,2007SR,037,39,2007_037u,19-Jul-2020 22:35:00,19-Jul-2020 14:35:00,33.65686,-118.97514,086.7 040.0,086.7,040.0,702.000,708.232,,5.4608,,5.4613,,5.4611,34.3747,,34.3749,34.3757,,34.3773,34.3761,0.1473,,0.1362,0.1359,1.8164,,0.3951,0.1841,0.1600,6.403,6.1960,11.9761,78.980,,13.9432,12.9597,0.0341,,,,-99.0,,-99.0,-99.0,27.1324,,27.1332,,0.6534,84.9301,,7.519,,1.6692E+03,,4.9691E-02,,5.4009,5.4014,1.1296,,2.096,25.854,,,,,,,,,,,,
CalCOFI,2007SR,037,39,2007_037u,19-Jul-2020 22:35:01,19-Jul-2020 14:35:01,33.65686,-118.97514,086.7 040.0,086.7,040.0,701.000,707.222,,5.4630,,5.4633,,5.4632,34.3746,,34.3748,34.3757,,34.3773,34.3761,0.1541,,0.1433,0.1430,1.8203,,0.4044,0.1954,0.1692,6.699,6.5050,12.2195,79.148,,14.3297,13.2746,0.0339,,,,-99.0,,-99.0,-99.0,27.1320,,27.1328,,0.6538,84.9202,,7.519,,1.6507E+03,,5.1996E-02,,5.4033,5.4035,1.1296,,2.193,25.911,,,,,,,,,,,,
CalCOFI,2007SR,037,39,2007_037u,19-Jul-2020 22:35:02,19-Jul-2020 14:35:02,33.65686,-118.97514,086.7 040.0,086.7,040.0,700.000,706.211,,5.4700,,5.4703,,5.4702,34.3742,,34.3744,34.3753,,34.3769,34.3757,0.1509,,0.1400,0.1397,1.8211,,0.4063,0.1977,0.1687,6.560,6.3599,12.1052,79.182,,14.4079,13.2566,0.0341,,,,-99.0,,-99.0,-99.0,27.1309,,27.1317,,0.6533,84.9321,,7.519,,1.6384E+03,,4.7203E-02,,5.4103,5.4106,1.1296,,2.148,25.926,,,,,,,,,,,,
CalCOFI,2007SR,037,39,2007_037u,19-Jul-2020 22:35:03,19-Jul-2020 14:35:03,33.65686,-118.97514,086.7 040.0,086.7,040.0,699.000,705.200,,5.4759,,5.4766,,5.4763,34.3737,,34.3739,34.3747,,34.3763,34.3751,0.1541,,0.1433,0.1430,1.8181,,0.3992,0.1890,0.1660,6.700,6.5060,12.2204,79.050,,14.1043,13.1624,0.0342,,,,-99.0,,-99.0,-99.0,27.1298,,27.1305,,0.6536,84.9245,,7.519,,1.6333E+03,,4.9940E-02,,5.4162,5.4169,1.1296,,2.194,25.887,,,,,,,,,,,,
CalCOFI,2007SR,037,39,2007_037u,19-Jul-2020 22:35:04,19-Jul-2020 14:35:04,33.65686,-118.97513,086.7 040.0,086.7,040.0,698.000,704.190,,5.4827,,5.4834,,5.4831,34.3732,,34.3734,34.3741,,34.3757,34.3746,0.1577,,0.1471,0.1468,1.8187,,0.4006,0.1908,0.1688,6.857,6.6699,12.3495,79.077,,14.1664,13.2580,0.0344,,,,-99.0,,-99.0,-99.0,27.1286,,27.1292,,0.6527,84.9438,,7.520,,1.6284E+03,,5.5269E-02,,5.4231,5.4238,1.1296,,2.246,25.900,,,,,,,,,,,,
CalCOFI,2007SR,037,39,2007_037u,19-Jul-2020 22:35:05,19-Jul-2020 14:35:05,33.65686,-118.97512,086.7 040.0,086.7,040.0,697.000,703.179,,5.4886,,5.4890,,5.4888,34.3728,,34.3730,34.3737,,34.3753,34.3742,0.1525,,0.1416,0.1414,1.8210,,0.4061,0.1974,0.1694,6.631,6.4340,12.1636,79.180,,14.4033,13.2835,0.0342,,,,-99.0,,-99.0,-99.0,27.1275,,27.1282,,0.6525,84.9494,,7.520,,1.6254E+03,,4.4823E-02,,5.4290,5.4295,1.1296,,2.172,25.936,,,,,,,,,,,,
CalCOFI,2007SR,037,39,2007_037u,19-Jul-2020 22:35:06,19-Jul-2020 14:35:06,33.65686,-118.97512,086.7 040.0,086.7,040.0,696.000,702.169,,5.4923,,5.4927,,5.4925,34.3723,,34.3725,34.3733,,34.3749,34.3737,0.1529,,0.1421,0.1418,1.8203,,0.4044,0.1954,0.1686,6.649,6.4528,12.1784,79.147,,14.3274,13.2529,0.0342,,,,-99.0,,-99.0,-99.0,27.1267,,27.1274,,0.6529,84.9400,,7.519,,1.6279E+03,,4.8587E-02,,5.4328,5.4332,1.1296,,2.178,25.928,,,,,,,,,,,,
CalCOFI,2007SR,037,39,2007_037u,19-Jul-2020 22:35:07,19-Jul-2020 14:35:07,33.65686,-118.97512,086.7 040.0,086.7,040.0,695.000,701.158,,5.4955,,5.4958,,5.4957,34.3722,,34.3724,34.3731,,34.3747,34.3736,0.1593,,0.1488,0.1485,1.8259,,0.4178,0.2115,0.1800,6.927,6.7430,12.4071,79.391,,14.8887,13.6479,0.0345,,,,-99.0,,-99.0,-99.0,27.1262,,27.1269,,0.6520,84.9592,,7.520,,1.6361E+03,,4.4139E-02,,5.4361,5.4364,1.1296,,2.269,26.009,,,,,,,,,,,,
CalCOFI,2007SR,037,39,2007_037u,19-Jul-2020 22:35:08,19-Jul-2020 14:35:08,33.65686,-118.97513,086.7 040.0,086.7,040.0,694.000,700.148,,5.4979,,5.4983,,5.4981,34.3719,,34.3721,34.3730,,34.3746,34.3734,0.1591,,0.1485,0.1483,1.8193,,0.4020,0.1925,0.1704,6.918,6.7336,12.3997,79.103,,14.2262,13.3130,0.0345,,,,-99.0,,-99.0,-99.0,27.1256,,27.1264,,0.6528,84.9417,,7.520,,1.6402E+03,,4.0970E-02,,5.4386,5.4390,1.1296,,2.267,25.917,,,,,,,,,,,,
CalCOFI,2007SR,037,39,2007_037u,19-Jul-2020 22:35:09,19-Jul-2020 14:35:09,33.65686,-118.97514,086.7 040.0,086.7,040.0,693.000,699.137,,5.5030,,5.5032,,5.5031,34.3715,,34.3717,34.3727,,34.3743,34.3730,0.1587,,0.1481,0.1479,1.8209,,0.4058,0.1971,0.1725,6.899,6.7138,12.3840,79.174,,14.3895,13.3868,0.0344,,,,-99.0,,-99.0,-99.0,27.1247,,27.1256,,0.6532,84.9335,,7.520,,1.6374E+03,,4.2761E-02,,5.4437,5.4439,1.1296,,2.261,25.943,,,,,,,,,,,,
CalCOFI,2007SR,037,39,2007_037u,19-Jul-2020 22:35:11,19-Jul-2020 14:35:11,33.65686,-118.97513,086.7 040.0,086.7,040.0,692.000,698.127,,5.5110,,5.5113,,5.5112,34.3709,,34.3711,34.3723,,34.3739,34.3725,0.1614,,0.1509,0.1507,1.8195,,0.4025,0.1931,0.1719,7.018,6.8380,12.4819,79.114,,14.2515,13.3667,0.0342,,,,-99.0,,-99.0,-99.0,27.1233,,27.1243,,0.6542,84.9124,,7.520,,1.6317E+03,,4.2116E-02,,5.4517,5.4521,1.1296,,2.300,25.928,,,,,,,,,,,,
CalCOFI,2007SR,037,39,2007_037u,19-Jul-2020 22:35:14,19-Jul-2020 14:35:14,33.65686,-118.97514,086.7 040.0,086.7,040.0,691.000,697.116,,5.5082,,5.5128,,5.5105,34.3715,,34.3717,34.3718,,34.3734,34.3726,0.1607,,0.1502,0.1500,1.8192,,0.4018,0.1922,0.1711,6.987,6.8056,12.4564,79.099,,14.2170,13.3367,0.0341,,,,-99.0,,-99.0,-99.0,27.1240,,27.1238,,0.6536,84.9250,,7.520,,1.6244E+03,,4.0618E-02,,5.4491,5.4537,1.1296,,2.290,25.924,,,,,,,,,,,,
CalCOFI,2007SR,037,39,2007_037u,19-Jul-2020 22:35:51,19-Jul-2020 14:35:51,33.65684,-118.97514,086.7 040.0,086.7,040.0,690.000,696.105,,5.5241,,5.5191,,5.5216,34.3694,,34.3696,34.3712,,34.3728,34.3712,0.1649,,0.1546,0.1543,1.8375,,0.4455,0.2450,0.1997,7.170,6.9967,12.6069,79.896,,16.0504,14.3287,0.0340,,,,-99.0,,-99.0,-99.0,27.1205,,27.1225,,0.6523,84.9529,,7.523,,1.6913E+03,,2.4636E-02,,5.4650,5.4600,1.1310,,2.350,26.189,690,5.524,34.3719,0.137,5.98,,,37.71,0.039,0.00,3.27,95.58
CalCOFI,2007SR,037,39,2007_037u,19-Jul-2020 22:36:09,19-Jul-2020 14:36:09,33.65684,-118.97514,086.7 040.0,086.7,040.0,689.000,695.095,,5.5318,,5.5323,,5.5321,34.3691,,34.3693,34.3703,,34.3719,34.3706,0.1678,,0.1576,0.1574,1.8373,,0.4450,0.2444,0.2009,7.297,7.1292,12.7113,79.886,,16.0274,14.3694,0.0342,,,,-99.0,,-99.0,-99.0,27.1193,,27.1202,,0.6474,85.0583,,7.523,,1.5562E+03,,1.8511E-02,,5.4728,5.4732,1.1319,,2.393,26.194,,,,,,,,,,,,